QPF
0.00 0.00 0.00 0.00 0.00 0.00 0.00 0.00 0.00 0.00 0.00 0.00 0.00 0.00 0.01 0.01 0.00 0.00 0.00 0.00 0.00 0.00 0.00 0.00 0.00 0.00 0.00 0.01 0.01 0.00 0.01 0.01 0.00 0.00 0.00 0.00 0.00 0.00 0.00 0.00 0.00 0.00 0.01 0.00 0.00 0.00 0.00 0.00 0.00
0.00 0.00 0.00 0.00 0.00 0.00 0.00 0.00 0.00 0.00 0.00 0.00 0.00 0.01 0.03 0.01 0.00 0.00 0.00 0.00 0.00 0.00 0.00 0.00 0.00 0.00 0.00 0.02 0.00 0.00 0.00 0.00 0.00 0.00 0.01 0.00 0.00 0.00 0.00 0.00 0.00 0.00 0.00 0.00 0.00 0.00 0.00 0.00 0.00
0.00 0.00 0.00 0.00 0.00 0.00 0.00 0.00 0.00 0.00 0.00 0.00 0.00 0.01 0.01 0.01 0.01 0.00 0.00 0.00 0.00 0.00 0.00 0.00 0.00 0.00 0.01 0.00 0.00 0.00 0.00 0.00 0.00 0.00 0.02 0.01 0.00 0.00 0.00 0.00 0.00 0.00 0.00 0.00 0.00 0.00 0.00 0.00 0.00
0.02 0.00 0.00 0.00 0.00 0.00 0.00 0.00 0.00 0.00 0.00 0.00 0.00 0.00 0.00 0.02 0.00 0.00 0.00 0.00 0.00 0.00 0.00 0.00 0.00 0.00 0.00 0.00 0.00 0.00 0.00 0.00 0.00 0.00 0.01 0.01 0.00 0.00 0.00 0.00 0.00 0.00 0.00 0.00 0.00 0.00 0.00 0.00 0.00
0.01 0.01 0.00 0.00 0.00 0.00 0.00 0.00 0.00 0.00 0.00 0.00 0.00 0.01 0.00 0.00 0.03 0.01 0.00 0.00 0.00 0.00 0.00 0.00 0.00 0.00 0.00 0.00 0.00 0.00 0.00 0.00 0.00 0.00 0.00 0.02 0.00 0.00 0.00 0.00 0.00 0.00 0.00 0.00 0.00 0.00 0.00 0.00 0.00
0.09 0.02 0.00 0.00 0.00 0.00 0.00 0.00 0.00 0.00 0.00 0.00 0.00 0.02 0.00 0.00 0.00 0.00 0.00 0.00 0.00 0.00 0.00 0.00 0.01 0.01 0.00 0.00 0.00 0.00 0.00 0.00 0.00 0.00 0.00 0.01 0.00 0.00 0.00 0.00 0.00 0.00 0.00 0.00 0.00 0.00 0.00 0.00 0.00
0.09 0.04 0.01 0.00 0.00 0.00 0.00 0.00 0.00 0.00 0.00 0.00 0.00 0.06 0.01 0.00 0.00 0.00 0.00 0.00 0.00 0.00 0.00 0.00 0.01 0.01 0.00 0.00 0.00 0.00 0.00 0.00 0.00 0.00 0.00 0.01 0.00 0.00 0.00 0.00 0.00 0.00 0.00 0.00 0.00 0.00 0.00 0.00 0.00
0.05 0.05 0.01 0.00 0.00 0.00 0.00 0.00 0.00 0.00 0.00 0.00 0.00 0.04 0.02 0.00 0.01 0.00 0.00 0.00 0.00 0.00 0.00 0.00 0.01 0.01 0.00 0.00 0.00 0.00 0.00 0.00 0.00 0.00 0.00 0.00 0.00 0.00 0.00 0.00 0.00 0.00 0.00 0.00 0.00 0.00 0.00 0.00 0.00
0.05 0.07 0.00 0.00 0.00 0.00 0.00 0.00 0.00 0.00 0.00 0.00 0.00 0.02 0.03 0.01 0.04 0.02 0.01 0.00 0.00 0.00 0.00 0.01 0.00 0.00 0.00 0.00 0.00 0.00 0.00 0.00 0.00 0.00 0.00 0.00 0.00 0.00 0.00 0.00 0.00 0.00 0.00 0.00 0.00 0.00 0.00 0.00 0.00
0.08 0.04 0.00 0.00 0.01 0.01 0.00 0.00 0.00 0.00 0.00 0.00 0.00 0.00 0.00 0.00 0.04 0.06 0.02 0.00 0.00 0.00 0.01 0.01 0.01 0.00 0.00 0.00 0.00 0.00 0.00 0.00 0.00 0.00 0.00 0.00 0.00 0.00 0.00 0.00 0.00 0.00 0.00 0.00 0.00 0.00 0.00 0.00 0.00
0.06 0.00 0.00 0.01 0.01 0.02 0.00 0.00 0.00 0.00 0.00 0.00 0.00 0.00 0.00 0.01 0.03 0.04 0.03 0.01 0.00 0.00 0.01 0.02 0.01 0.00 0.00 0.00 0.00 0.00 0.00 0.00 0.00 0.00 0.00 0.00 0.00 0.00 0.00 0.00 0.00 0.00 0.00 0.00 0.00 0.00 0.00 0.00 0.00
0.07 0.02 0.07 0.03 0.01 0.02 0.01 0.00 0.00 0.00 0.00 0.00 0.00 0.00 0.00 0.00 0.01 0.02 0.03 0.02 0.01 0.00 0.01 0.01 0.01 0.01 0.00 0.00 0.00 0.00 0.00 0.00 0.00 0.00 0.00 0.00 0.00 0.00 0.00 0.00 0.00 0.00 0.00 0.00 0.00 0.00 0.00 0.00 0.00
0.14 0.03 0.07 0.02 0.01 0.02 0.01 0.01 0.00 0.00 0.00 0.00 0.00 0.00 0.00 0.00 0.00 0.00 0.02 0.03 0.02 0.00 0.00 0.00 0.00 0.01 0.01 0.00 0.00 0.00 0.00 0.00 0.00 0.00 0.00 0.00 0.00 0.00 0.00 0.00 0.00 0.00 0.00 0.00 0.00 0.00 0.00 0.00 0.00
0.07 0.08 0.11 0.08 0.01 0.00 0.00 0.00 0.00 0.00 0.00 0.00 0.00 0.00 0.00 0.00 0.00 0.00 0.01 0.02 0.05 0.02 0.02 0.02 0.00 0.00 0.01 0.00 0.01 0.00 0.00 0.00 0.00 0.00 0.00 0.00 0.00 0.00 0.00 0.00 0.00 0.00 0.00 0.00 0.00 0.00 0.00 0.00 0.00
0.04 0.16 0.17 0.11 0.02 0.01 0.00 0.00 0.00 0.00 0.00 0.00 0.00 0.00 0.00 0.00 0.00 0.01 0.01 0.00 0.01 0.03 0.04 0.06 0.01 0.00 0.00 0.00 0.01 0.00 0.00 0.00 0.00 0.00 0.00 0.00 0.00 0.00 0.00 0.00 0.00 0.00 0.00 0.00 0.00 0.00 0.00 0.00 0.00
0.02 0.09 0.20 0.10 0.03 0.03 0.01 0.00 0.00 0.00 0.00 0.00 0.00 0.00 0.00 0.00 0.00 0.00 0.02 0.01 0.01 0.02 0.03 0.04 0.08 0.02 0.00 0.00 0.01 0.00 0.00 0.00 0.00 0.00 0.00 0.00 0.00 0.00 0.00 0.00 0.00 0.00 0.00 0.00 0.00 0.00 0.00 0.00 0.00
0.01 0.01 0.05 0.09 0.06 0.02 0.01 0.00 0.00 0.00 0.00 0.00 0.00 0.00 0.00 0.00 0.00 0.00 0.00 0.00 0.00 0.00 0.02 0.03 0.03 0.01 0.01 0.01 0.02 0.02 0.00 0.00 0.00 0.00 0.00 0.00 0.00 0.00 0.00 0.00 0.00 0.00 0.00 0.00 0.00 0.00 0.00 0.00 0.00
0.00 0.00 0.00 0.02 0.03 0.01 0.02 0.00 0.00 0.00 0.00 0.00 0.00 0.00 0.00 0.00 0.00 0.00 0.00 0.00 0.00 0.00 0.01 0.04 0.04 0.03 0.03 0.05 0.07 0.06 0.02 0.00 0.00 0.00 0.00 0.00 0.00 0.00 0.00 0.00 0.00 0.00 0.00 0.00 0.00 0.00 0.00 0.00 0.00
0.00 0.00 0.00 0.00 0.01 0.02 0.00 0.00 0.00 0.00 0.00 0.00 0.00 0.00 0.00 0.00 0.00 0.00 0.00 0.00 0.00 0.00 0.00 0.00 0.01 0.10 0.06 0.04 0.02 0.03 0.03 0.08 0.03 0.01 0.01 0.00 0.00 0.00 0.00 0.00 0.00 0.00 0.00 0.00 0.00 0.00 0.00 0.00 0.00
0.00 0.00 0.00 0.00 0.00 0.01 0.00 0.00 0.00 0.00 0.00 0.00 0.00 0.00 0.00 0.00 0.00 0.00 0.00 0.00 0.00 0.00 0.01 0.01 0.01 0.05 0.11 0.02 0.09 0.20 0.19 0.16 0.12 0.08 0.06 0.08 0.08 0.04 0.02 0.00 0.00 0.00 0.00 0.00 0.00 0.00 0.00 0.00 0.00
0.00 0.00 0.00 0.00 0.00 0.00 0.00 0.00 0.00 0.00 0.00 0.00 0.00 0.00 0.00 0.00 0.00 0.00 0.00 0.00 0.00 0.00 0.00 0.02 0.05 0.03 0.00 0.05 0.17 0.33 0.29 0.16 0.13 0.16 0.10 0.09 0.03 0.01 0.00 0.00 0.00 0.00 0.00 0.00 0.00 0.00 0.00 0.00 0.00
0.00 0.00 0.01 0.00 0.00 0.00 0.00 0.00 0.00 0.00 0.00 0.00 0.00 0.00 0.00 0.00 0.00 0.00 0.00 0.00 0.00 0.00 0.00 0.00 0.01 0.05 0.12 0.17 0.21 0.10 0.01 0.08 0.13 0.11 0.09 0.06 0.03 0.00 0.00 0.00 0.00 0.00 0.00 0.00 0.00 0.00 0.00 0.00 0.00
0.00 0.00 0.00 0.00 0.00 0.00 0.00 0.00 0.00 0.00 0.00 0.00 0.00 0.00 0.00 0.00 0.00 0.00 0.00 0.00 0.00 0.00 0.01 0.01 0.01 0.01 0.05 0.04 0.01 0.01 0.03 0.09 0.03 0.06 0.03 0.01 0.01 0.00 0.00 0.00 0.00 0.00 0.00 0.00 0.00 0.00 0.00 0.01 0.01
0.00 0.01 0.00 0.00 0.00 0.01 0.00 0.00 0.00 0.00 0.00 0.00 0.00 0.00 0.00 0.00 0.00 0.00 0.00 0.00 0.00 0.00 0.00 0.00 0.00 0.00 0.00 0.01 0.00 0.00 0.00 0.00 0.00 0.01 0.00 0.00 0.00 0.00 0.00 0.00 0.00 0.00 0.00 0.00 0.00 0.00 0.00 0.00 0.01
0.00 0.00 0.01 0.01 0.01 0.00 0.00 0.00 0.00 0.00 0.00 0.00 0.00 0.00 0.00 0.00 0.00 0.00 0.00 0.00 0.00 0.00 0.00 0.00 0.00 0.00 0.00 0.00 0.00 0.00 0.00 0.00 0.00 0.00 0.00 0.00 0.00 0.00 0.00 0.00 0.00 0.00 0.00 0.00 0.00 0.00 0.00 0.00 0.00
0.00 0.01 0.01 0.00 0.00 0.00 0.00 0.00 0.00 0.00 0.00 0.00 0.00 0.00 0.00 0.00 0.00 0.00 0.00 0.00 0.00 0.00 0.00 0.00 0.00 0.00 0.00 0.00 0.00 0.00 0.00 0.00 0.00 0.00 0.00 0.00 0.00 0.00 0.00 0.00 0.00 0.00 0.00 0.00 0.00 0.00 0.00 0.00 0.00
0.00 0.00 0.00 0.02 0.00 0.00 0.00 0.00 0.00 0.00 0.00 0.00 0.00 0.00 0.00 0.00 0.00 0.00 0.00 0.00 0.00 0.00 0.00 0.00 0.00 0.00 0.00 0.00 0.00 0.00 0.00 0.00 0.00 0.00 0.00 0.00 0.00 0.00 0.00 0.00 0.00 0.00 0.00 0.00 0.00 0.00 0.00 0.00 0.00
0.01 0.01 0.01 0.01 0.00 0.00 0.00 0.00 0.00 0.00 0.00 0.00 0.00 0.00 0.00 0.00 0.00 0.00 0.00 0.00 0.00 0.00 0.00 0.00 0.00 0.00 0.00 0.00 0.00 0.00 0.00 0.00 0.00 0.00 0.00 0.00 0.00 0.00 0.00 0.00 0.00 0.00 0.00 0.00 0.00 0.00 0.00 0.00 0.00
0.00 0.01 0.01 0.01 0.00 0.00 0.00 0.00 0.00 0.00 0.00 0.00 0.00 0.00 0.00 0.00 0.00 0.00 0.00 0.00 0.00 0.00 0.00 0.00 0.00 0.00 0.00 0.00 0.00 0.00 0.00 0.00 0.00 0.00 0.00 0.00 0.00 0.00 0.00 0.00 0.00 0.00 0.00 0.00 0.00 0.00 0.00 0.00 0.00
0.00 0.00 0.02 0.02 0.00 0.00 0.00 0.00 0.00 0.00 0.00 0.00 0.00 0.00 0.00 0.00 0.00 0.00 0.00 0.00 0.00 0.00 0.00 0.00 0.01 0.00 0.00 0.00 0.00 0.00 0.00 0.00 0.00 0.00 0.00 0.00 0.00 0.00 0.00 0.00 0.00 0.00 0.00 0.00 0.00 0.00 0.00 0.00 0.00
MSLP
1012.29 1011.94 1011.75 1011.82 1012.53 1011.24 1010.00 1008.29 1006.75 1005.79 1005.73 1005.92 1006.15 1007.05 1007.37 1007.63 1008.94 1009.42 1009.81 1010.19 1011.33 1012.59 1013.48 1014.16 1014.67 1014.99 1015.44 1015.91 1016.20 1016.53 1016.76 1017.01 1017.32 1017.52 1017.73 1017.95 1018.04 1018.11 1018.26 1018.39 1018.57 1018.67 1018.85 1019.20 1019.45 1019.70 1019.78 1019.89 1020.05
1011.74 1011.28 1011.49 1011.46 1011.42 1010.45 1009.10 1007.72 1007.00 1006.35 1006.23 1006.37 1006.87 1007.40 1007.53 1009.17 1009.10 1009.17 1009.72 1010.41 1011.38 1012.51 1013.59 1014.20 1014.80 1015.13 1015.57 1016.05 1016.49 1016.79 1017.03 1017.28 1017.54 1017.73 1018.04 1018.31 1018.48 1018.62 1018.75 1018.80 1018.99 1019.22 1019.39 1019.76 1019.93 1020.12 1020.16 1020.16 1020.36
1011.92 1011.07 1011.21 1011.01 1010.44 1009.53 1008.31 1007.11 1006.74 1006.67 1006.78 1007.01 1007.25 1007.96 1008.12 1009.55 1009.58 1009.40 1009.81 1010.65 1011.44 1012.70 1013.43 1014.30 1014.92 1015.32 1015.79 1016.16 1016.73 1016.96 1017.19 1017.53 1017.79 1018.02 1018.27 1018.55 1018.88 1019.06 1019.23 1019.36 1019.53 1019.77 1019.94 1020.02 1020.29 1020.36 1020.42 1020.46 1020.59
1011.44 1010.97 1011.06 1009.95 1009.35 1008.64 1007.70 1006.59 1006.56 1007.00 1007.27 1007.62 1007.44 1008.49 1009.48 1010.02 1009.56 1009.78 1010.16 1010.86 1011.85 1012.76 1013.44 1014.57 1015.08 1015.53 1016.04 1016.54 1016.88 1017.13 1017.38 1017.68 1017.98 1018.29 1018.47 1018.72 1019.17 1019.49 1019.66 1019.81 1019.96 1020.18 1020.27 1020.30 1020.57 1020.61 1020.63 1020.81 1020.88
1011.06 1010.73 1010.58 1009.77 1008.91 1008.10 1007.63 1007.16 1007.29 1007.44 1007.51 1007.90 1007.86 1009.16 1010.33 1010.45 1010.37 1010.08 1010.53 1011.02 1011.90 1012.77 1013.82 1014.71 1015.26 1015.78 1016.28 1016.73 1017.06 1017.34 1017.58 1017.86 1018.14 1018.52 1018.69 1018.99 1019.39 1019.77 1019.98 1020.11 1020.33 1020.51 1020.52 1020.61 1020.71 1020.86 1020.94 1021.02 1021.15
1011.36 1010.78 1010.27 1009.37 1008.74 1007.70 1007.63 1007.83 1007.96 1007.68 1007.73 1008.23 1008.59 1009.51 1011.43 1011.66 1010.94 1010.80 1010.90 1011.23 1011.91 1013.06 1014.06 1014.97 1015.61 1016.04 1016.55 1016.89 1017.14 1017.49 1017.76 1018.02 1018.33 1018.63 1018.88 1019.14 1019.46 1019.78 1020.12 1020.38 1020.59 1020.71 1020.73 1020.85 1020.99 1021.17 1021.29 1021.30 1021.46
1011.65 1010.79 1010.10 1009.27 1008.54 1007.72 1007.95 1008.10 1008.27 1008.18 1008.32 1008.88 1009.01 1009.98 1012.07 1012.17 1011.98 1011.56 1011.39 1011.48 1012.40 1012.99 1014.16 1015.14 1015.78 1016.31 1016.77 1017.09 1017.40 1017.63 1017.95 1018.21 1018.46 1018.71 1019.02 1019.35 1019.59 1019.90 1020.28 1020.55 1020.68 1020.84 1020.88 1021.08 1021.20 1021.41 1021.59 1021.54 1021.66
1011.65 1011.40 1010.46 1009.27 1008.28 1007.92 1008.22 1008.65 1008.72 1009.03 1009.35 1009.41 1009.56 1010.53 1012.29 1012.66 1012.58 1012.51 1012.17 1012.20 1012.62 1013.49 1014.02 1015.13 1015.93 1016.52 1017.03 1017.41 1017.74 1017.88 1018.12 1018.36 1018.55 1018.89 1019.29 1019.74 1019.92 1020.06 1020.38 1020.67 1020.81 1020.99 1021.05 1021.28 1021.40 1021.54 1021.68 1021.73 1021.80
1011.77 1011.61 1010.52 1009.36 1008.53 1008.68 1008.42 1009.16 1009.59 1009.72 1010.02 1010.25 1010.60 1011.39 1012.28 1012.82 1013.04 1013.17 1013.01 1013.02 1013.44 1013.77 1014.33 1015.02 1015.71 1016.28 1016.84 1017.50 1018.04 1018.25 1018.40 1018.59 1018.71 1019.01 1019.33 1019.76 1020.05 1020.21 1020.62 1020.72 1020.90 1021.08 1021.18 1021.36 1021.51 1021.66 1021.79 1021.83 1021.85
1012.09 1011.52 1010.32 1009.25 1009.57 1008.98 1008.91 1009.50 1009.83 1010.15 1010.72 1010.78 1011.42 1012.26 1012.46 1013.01 1013.49 1013.74 1013.60 1013.61 1013.71 1014.06 1014.58 1015.09 1015.38 1015.92 1016.56 1017.19 1017.95 1018.20 1018.53 1018.71 1018.75 1019.03 1019.27 1019.27 1019.53 1019.95 1020.49 1020.79 1020.99 1021.19 1021.24 1021.34 1021.49 1021.64 1021.75 1021.78 1021.80
1012.31 1011.61 1010.52 1009.90 1009.83 1009.78 1009.71 1009.61 1009.85 1010.11 1010.78 1010.96 1011.72 1012.36 1012.96 1013.29 1013.77 1014.17 1014.15 1014.24 1014.24 1014.34 1014.77 1015.15 1015.53 1015.76 1016.40 1016.96 1017.48 1017.75 1018.15 1018.37 1018.54 1018.76 1018.90 1019.03 1019.27 1019.71 1020.28 1020.65 1020.99 1021.18 1021.22 1021.31 1021.38 1021.49 1021.51 1021.45 1021.51
1013.34 1012.47 1011.31 1011.46 1011.01 1011.21 1010.69 1009.87 1010.02 1010.12 1010.84 1011.35 1011.68 1012.24 1012.97 1013.42 1013.74 1014.09 1014.33 1014.44 1014.45 1014.61 1014.93 1015.35 1015.46 1015.96 1016.29 1016.62 1016.97 1017.10 1017.52 1017.75 1018.16 1018.38 1018.38 1018.57 1019.08 1019.43 1019.72 1020.11 1020.34 1020.73 1020.83 1020.95 1021.12 1021.24 1021.11 1021.00 1021.02
1013.76 1013.20 1012.50 1012.48 1011.86 1011.81 1011.57 1010.68 1010.36 1010.87 1011.13 1011.52 1011.50 1011.94 1012.96 1013.46 1013.77 1014.16 1014.30 1014.42 1014.56 1014.83 1014.89 1015.22 1015.51 1016.02 1016.24 1016.48 1016.64 1016.77 1017.00 1017.42 1017.67 1017.98 1018.13 1018.45 1018.91 1019.19 1019.34 1019.58 1019.83 1020.07 1020.22 1020.34 1020.60 1020.66 1020.75 1020.81 1020.87
1013.16 1013.78 1013.81 1013.17 1012.23 1011.77 1011.59 1011.34 1010.95 1011.03 1011.38 1011.78 1011.76 1012.17 1012.56 1013.24 1013.42 1014.05 1014.24 1014.31 1014.57 1014.77 1014.80 1015.10 1015.55 1015.73 1016.08 1016.45 1016.48 1016.57 1016.72 1017.05 1017.49 1017.90 1018.22 1018.36 1018.69 1019.00 1019.24 1019.49 1019.79 1019.94 1020.02 1020.17 1020.30 1020.51 1020.62 1020.72 1020.68
1012.77 1014.22 1014.50 1013.90 1013.41 1012.10 1011.66 1011.47 1011.18 1010.92 1011.17 1011.76 1012.02 1012.08 1012.37 1013.00 1012.97 1013.47 1013.88 1013.94 1014.14 1014.62 1014.90 1015.28 1015.36 1015.50 1016.11 1016.35 1016.70 1016.65 1016.76 1016.79 1017.21 1017.73 1018.08 1018.43 1018.68 1018.91 1019.25 1019.51 1019.69 1019.87 1019.96 1019.99 1020.12 1020.21 1020.34 1020.58 1020.60
1012.35 1013.81 1013.85 1013.33 1012.82 1012.66 1012.83 1011.68 1011.10 1011.08 1011.48 1011.73 1011.84 1012.14 1012.35 1012.67 1012.83 1012.97 1013.14 1013.43 1013.74 1014.42 1014.93 1015.36 1015.71 1015.86 1016.14 1016.30 1016.42 1016.56 1016.77 1016.90 1017.11 1017.39 1017.78 1018.20 1018.57 1018.89 1019.17 1019.48 1019.53 1019.56 1019.75 1019.96 1020.07 1020.22 1020.48 1020.61 1020.69
1012.02 1012.77 1013.90 1014.32 1013.84 1012.97 1012.96 1012.18 1010.99 1010.94 1011.24 1011.44 1011.57 1011.66 1011.93 1012.15 1012.58 1012.84 1012.92 1013.05 1013.28 1013.68 1014.24 1015.02 1015.66 1015.92 1016.20 1016.26 1016.36 1016.66 1016.67 1016.84 1016.88 1017.00 1017.32 1017.81 1018.21 1018.54 1018.94 1019.15 1019.26 1019.30 1019.55 1019.84 1020.12 1020.28 1020.39 1020.57 1020.59
1011.95 1012.40 1012.56 1013.04 1013.57 1013.12 1013.27 1012.23 1011.12 1010.70 1010.89 1011.08 1011.41 1011.57 1011.56 1011.60 1012.02 1012.46 1012.84 1012.88 1013.04 1013.16 1013.66 1014.37 1015.09 1015.48 1015.80 1016.22 1016.45 1016.45 1016.69 1016.59 1016.69 1016.66 1016.96 1017.31 1017.79 1018.14 1018.62 1018.86 1018.93 1018.99 1019.33 1019.73 1019.93 1020.19 1020.32 1020.43 1020.48
1011.30 1011.66 1011.56 1011.80 1012.42 1013.13 1012.55 1011.61 1011.59 1011.14 1011.13 1011.36 1011.60 1011.58 1011.42 1011.35 1011.38 1011.91 1012.64 1013.01 1012.86 1013.19 1013.49 1013.91 1014.43 1014.92 1015.36 1015.80 1016.19 1016.56 1016.77 1016.65 1016.70 1016.80 1016.77 1017.07 1017.32 1017.68 1018.11 1018.57 1018.68 1018.88 1019.25 1019.49 1019.74 1019.87 1020.08 1020.32 1020.30
1011.60 1011.50 1011.61 1012.24 1012.54 1012.94 1011.98 1011.71 1011.42 1010.82 1010.60 1010.78 1011.28 1011.30 1011.16 1011.05 1011.20 1011.72 1012.42 1012.97 1012.86 1013.11 1013.34 1013.65 1013.86 1014.38 1014.88 1015.26 1015.53 1016.08 1016.36 1016.70 1016.73 1016.73 1016.88 1017.13 1017.52 1017.75 1018.16 1018.48 1018.75 1018.73 1019.11 1019.42 1019.67 1019.89 1020.09 1020.18 1020.22
1011.40 1011.50 1011.45 1012.06 1012.39 1012.36 1012.28 1011.84 1011.16 1010.44 1010.33 1010.21 1010.27 1010.49 1010.86 1010.84 1011.09 1011.80 1012.03 1012.60 1012.83 1012.92 1013.29 1013.60 1013.76 1014.19 1014.38 1014.79 1015.24 1016.05 1016.44 1016.71 1016.82 1016.93 1017.17 1017.58 1017.69 1017.98 1018.38 1018.70 1018.96 1019.09 1019.22 1019.56 1019.70 1019.88 1020.04 1020.14 1020.15
1011.56 1011.15 1011.83 1012.27 1012.52 1012.44 1012.29 1011.97 1010.75 1009.94 1009.60 1009.66 1009.78 1009.98 1010.43 1010.82 1010.67 1011.64 1012.05 1012.09 1012.64 1012.84 1012.68 1013.34 1013.75 1014.12 1014.41 1014.50 1015.12 1015.71 1016.17 1016.53 1016.99 1016.97 1017.37 1017.83 1018.05 1018.21 1018.59 1018.90 1019.12 1019.33 1019.47 1019.67 1019.76 1019.82 1020.02 1020.20 1020.23
1011.99 1011.46 1012.25 1012.90 1013.36 1013.22 1013.10 1012.88 1010.52 1009.29 1009.36 1009.08 1009.17 1009.63 1009.92 1010.27 1010.51 1010.80 1011.52 1011.71 1012.08 1012.80 1013.18 1013.13 1013.52 1014.21 1014.73 1014.91 1015.00 1015.48 1016.18 1016.75 1016.81 1017.08 1017.38 1018.26 1018.67 1018.79 1018.96 1019.43 1019.62 1019.68 1019.61 1019.65 1019.83 1019.86 1019.98 1019.96 1020.03
1012.60 1012.78 1013.02 1013.75 1014.27 1014.25 1013.28 1012.66 1010.66 1009.25 1008.40 1008.10 1008.36 1008.77 1009.12 1009.64 1009.95 1010.53 1011.18 1011.82 1012.32 1012.81 1013.45 1013.71 1013.88 1014.09 1014.72 1015.10 1015.09 1015.30 1016.05 1016.85 1017.29 1017.69 1017.91 1018.00 1018.85 1019.54 1019.21 1019.64 1019.81 1019.90 1019.83 1019.93 1019.94 1019.92 1019.97 1020.01 1019.96
1013.34 1013.56 1014.16 1015.01 1015.05 1014.07 1012.77 1012.35 1010.19 1008.50 1008.13 1007.89 1008.24 1008.49 1008.59 1008.79 1009.42 1010.21 1011.29 1011.75 1012.40 1013.22 1013.80 1014.05 1014.25 1014.71 1014.74 1015.52 1015.45 1014.84 1016.04 1016.57 1017.26 1017.59 1017.80 1018.58 1019.11 1019.22 1019.62 1019.86 1020.09 1020.19 1020.09 1020.01 1019.98 1020.03 1019.93 1020.01 1019.85
1013.76 1013.96 1014.07 1014.85 1014.96 1013.90 1012.97 1011.53 1009.65 1008.48 1007.96 1007.97 1007.94 1008.35 1008.83 1009.29 1009.46 1009.76 1010.84 1011.42 1012.15 1013.03 1013.71 1014.21 1014.61 1014.92 1015.35 1015.64 1015.55 1015.68 1016.20 1016.79 1017.20 1017.63 1018.09 1018.53 1019.04 1019.44 1019.68 1020.08 1020.34 1020.35 1020.37 1020.26 1020.20 1020.12 1020.17 1020.20 1020.17
1013.99 1014.04 1014.24 1015.61 1014.90 1014.30 1013.05 1011.36 1009.55 1008.48 1008.32 1008.40 1008.58 1008.84 1009.29 1009.64 1009.89 1010.20 1010.75 1011.34 1012.03 1012.67 1013.22 1014.22 1014.70 1014.88 1015.52 1015.93 1016.06 1015.87 1016.22 1017.00 1017.66 1017.99 1018.53 1019.02 1019.23 1019.61 1019.97 1020.25 1020.37 1020.45 1020.49 1020.42 1020.24 1020.27 1020.14 1020.34 1020.45
1014.35 1014.50 1015.07 1015.65 1015.53 1014.37 1012.74 1011.22 1009.70 1008.71 1008.66 1008.90 1009.09 1009.46 1009.73 1009.96 1010.24 1010.65 1011.15 1011.78 1012.23 1012.53 1013.27 1013.74 1014.75 1014.76 1015.48 1016.03 1016.26 1016.38 1016.74 1017.17 1017.74 1018.48 1018.89 1019.07 1019.44 1019.79 1020.14 1020.32 1020.54 1020.63 1020.62 1020.48 1020.44 1020.38 1020.24 1020.32 1020.53
1014.76 1015.08 1015.48 1015.22 1015.17 1014.56 1013.47 1011.46 1010.06 1009.05 1009.20 1009.46 1010.03 1010.35 1010.47 1010.70 1010.96 1011.30 1011.74 1012.13 1012.59 1012.85 1013.23 1013.28 1014.18 1015.00 1015.35 1015.80 1016.77 1016.36 1016.85 1018.04 1018.77 1018.72 1018.73 1019.16 1019.70 1020.11 1020.17 1020.40 1020.59 1020.65 1020.65 1020.67 1020.57 1020.41 1020.40 1020.35 1020.42
1013.99 1014.51 1015.12 1015.32 1015.12 1014.48 1013.61 1011.97 1010.10 1009.68 1009.71 1009.82 1010.46 1010.77 1011.00 1011.33 1011.58 1011.74 1011.89 1012.39 1012.96 1013.30 1013.55 1013.56 1013.76 1015.19 1015.98 1016.23 1015.55 1017.12 1018.30 1018.56 1018.48 1018.58 1019.21 1019.56 1019.87 1020.06 1020.44 1020.62 1020.61 1020.65 1020.80 1020.81 1020.76 1020.64 1020.72 1020.79 1020.82
Thickness
5665 5673 5680 5677 5655 5669 5677 5704 5740 5745 5747 5760 5768 5755 5751 5763 5739 5730 5778 5782 5776 5768 5762 5759 5756 5756 5753 5750 5750 5748 5748 5747 5745 5743 5743 5741 5742 5742 5741 5740 5737 5736 5734 5731 5728 5725 5725 5723 5721
5660 5672 5670 5661 5647 5651 5678 5718 5719 5734 5743 5761 5759 5758 5756 5740 5757 5765 5770 5778 5773 5766 5759 5757 5754 5753 5751 5748 5746 5745 5744 5743 5742 5742 5740 5738 5738 5737 5736 5736 5734 5731 5730 5726 5725 5722 5721 5721 5718
5651 5666 5651 5647 5651 5658 5683 5719 5724 5733 5746 5748 5748 5752 5753 5740 5754 5764 5775 5774 5770 5763 5759 5754 5751 5750 5748 5746 5742 5742 5742 5740 5739 5738 5737 5736 5734 5733 5732 5731 5729 5727 5725 5724 5721 5720 5719 5718 5716
5642 5647 5649 5642 5657 5687 5702 5720 5725 5727 5741 5744 5750 5732 5746 5753 5761 5765 5772 5771 5765 5760 5756 5750 5748 5746 5744 5741 5740 5739 5739 5738 5736 5734 5734 5733 5730 5728 5727 5726 5725 5722 5722 5722 5718 5718 5717 5715 5714
5635 5639 5630 5643 5665 5692 5698 5700 5712 5718 5727 5734 5744 5726 5727 5744 5757 5763 5765 5766 5761 5758 5751 5747 5745 5742 5739 5737 5737 5736 5736 5736 5734 5731 5731 5730 5728 5725 5724 5723 5721 5719 5719 5717 5717 5715 5714 5713 5711
5615 5632 5625 5639 5665 5694 5687 5701 5705 5713 5723 5725 5729 5724 5719 5736 5747 5753 5759 5760 5760 5752 5747 5743 5740 5739 5735 5734 5734 5734 5733 5733 5732 5730 5728 5727 5726 5724 5721 5720 5718 5717 5716 5714 5714 5712 5710 5710 5708
5607 5620 5631 5653 5665 5678 5675 5698 5697 5706 5712 5713 5726 5712 5714 5723 5735 5745 5752 5755 5754 5750 5744 5739 5737 5734 5732 5731 5730 5730 5730 5730 5730 5728 5726 5724 5723 5721 5719 5717 5716 5715 5714 5712 5711 5709 5707 5707 5706
5614 5616 5626 5650 5661 5660 5677 5687 5695 5692 5695 5723 5721 5707 5706 5718 5729 5734 5742 5744 5747 5743 5742 5736 5732 5729 5728 5727 5725 5726 5727 5726 5727 5725 5723 5720 5718 5718 5716 5715 5714 5713 5712 5710 5709 5707 5706 5705 5704
5611 5601 5616 5640 5656 5662 5677 5674 5687 5696 5695 5703 5709 5707 5716 5719 5723 5724 5728 5732 5735 5737 5737 5733 5730 5727 5726 5723 5721 5721 5722 5723 5724 5723 5721 5718 5716 5716 5713 5713 5712 5710 5709 5708 5706 5704 5704 5703 5702
5592 5599 5627 5660 5648 5659 5671 5671 5674 5679 5678 5685 5694 5700 5711 5712 5714 5712 5717 5720 5727 5728 5730 5730 5729 5727 5724 5722 5719 5719 5719 5719 5720 5720 5720 5719 5718 5716 5711 5710 5709 5707 5707 5706 5704 5703 5703 5702 5701
5589 5605 5639 5648 5642 5648 5659 5665 5675 5673 5667 5681 5684 5691 5698 5704 5704 5705 5710 5713 5719 5724 5723 5726 5726 5725 5721 5719 5720 5719 5718 5718 5718 5718 5719 5719 5717 5715 5711 5710 5707 5705 5705 5704 5703 5702 5702 5702 5701
5576 5603 5621 5621 5632 5635 5645 5661 5667 5669 5671 5683 5686 5692 5692 5696 5698 5702 5705 5709 5713 5718 5718 5720 5722 5720 5719 5719 5720 5720 5720 5720 5718 5718 5719 5720 5717 5715 5713 5711 5709 5706 5705 5704 5703 5701 5702 5702 5700
5571 5586 5604 5607 5622 5628 5636 5640 5654 5650 5671 5677 5686 5688 5684 5688 5693 5695 5702 5707 5708 5710 5715 5716 5717 5717 5718 5717 5718 5719 5720 5718 5718 5717 5717 5716 5715 5713 5712 5711 5710 5708 5706 5705 5704 5702 5701 5700 5699
5578 5578 5587 5598 5618 5627 5628 5634 5643 5652 5664 5667 5676 5679 5683 5684 5691 5691 5696 5701 5702 5707 5711 5713 5713 5713 5713 5715 5716 5718 5719 5717 5716 5714 5712 5712 5711 5710 5709 5709 5706 5705 5704 5703 5702 5700 5699 5698 5697
5576 5568 5576 5586 5598 5614 5628 5620 5632 5652 5657 5657 5664 5673 5677 5678 5690 5691 5694 5699 5703 5703 5705 5705 5709 5709 5708 5711 5708 5711 5714 5715 5713 5711 5709 5707 5706 5706 5705 5704 5703 5701 5700 5700 5699 5698 5697 5694 5693
5574 5566 5565 5582 5597 5604 5606 5604 5633 5642 5644 5651 5659 5666 5671 5677 5685 5692 5696 5701 5703 5700 5699 5699 5700 5702 5703 5705 5706 5707 5706 5709 5708 5709 5707 5703 5701 5701 5701 5699 5699 5699 5697 5695 5695 5694 5692 5690 5689
5574 5563 5558 5568 5581 5595 5595 5600 5627 5639 5639 5646 5654 5664 5667 5672 5678 5686 5692 5696 5702 5702 5700 5696 5695 5697 5697 5699 5700 5700 5701 5703 5704 5706 5705 5701 5699 5698 5697 5695 5695 5695 5694 5691 5689 5689 5688 5685 5684
5564 5568 5580 5576 5578 5589 5584 5598 5618 5632 5638 5646 5650 5657 5665 5671 5674 5681 5685 5692 5697 5699 5700 5697 5695 5695 5696 5695 5694 5695 5697 5699 5699 5701 5699 5698 5696 5695 5692 5691 5691 5691 5690 5687 5685 5683 5682 5681 5679
5578 5577 5584 5594 5593 5584 5591 5603 5608 5620 5626 5630 5639 5648 5658 5668 5675 5680 5679 5682 5689 5692 5696 5695 5695 5694 5693 5691 5691 5689 5690 5692 5692 5692 5693 5693 5692 5690 5690 5687 5686 5686 5685 5684 5682 5681 5678 5675 5675
5572 5576 5581 5579 5584 5578 5593 5598 5609 5619 5629 5635 5637 5643 5653 5663 5665 5673 5673 5674 5681 5683 5687 5690 5693 5691 5690 5692 5694 5688 5686 5684 5685 5687 5687 5686 5684 5684 5682 5681 5680 5679 5679 5677 5675 5673 5671 5669 5668
5571 5569 5574 5574 5581 5589 5588 5585 5602 5621 5625 5634 5642 5648 5651 5657 5660 5664 5667 5668 5672 5676 5678 5681 5684 5683 5687 5690 5689 5681 5677 5675 5676 5677 5677 5673 5674 5674 5674 5673 5671 5670 5670 5667 5666 5665 5663 5660 5661
5558 5580 5571 5570 5571 5563 5581 5563 5599 5616 5623 5629 5635 5640 5644 5649 5656 5655 5661 5665 5666 5669 5676 5673 5675 5675 5678 5681 5679 5675 5671 5669 5666 5670 5667 5663 5660 5662 5662 5662 5662 5661 5660 5659 5658 5657 5655 5653 5650
5558 5574 5569 5565 5563 5561 5569 5559 5593 5619 5613 5626 5634 5636 5640 5645 5649 5650 5655 5663 5664 5661 5661 5664 5666 5665 5665 5665 5669 5667 5665 5660 5661 5661 5659 5654 5651 5652 5653 5650 5650 5650 5651 5651 5649 5648 5647 5647 5645
5559 5558 5562 5559 5551 5530 5561 5563 5581 5602 5620 5631 5630 5636 5638 5642 5647 5648 5645 5656 5656 5651 5649 5651 5652 5655 5654 5654 5658 5659 5656 5652 5649 5648 5647 5648 5643 5639 5643 5641 5641 5640 5640 5640 5640 5640 5639 5637 5637
5545 5542 5525 5521 5526 5528 5575 5560 5586 5614 5619 5627 5626 5630 5637 5642 5644 5643 5634 5642 5644 5640 5635 5635 5638 5638 5642 5638 5644 5654 5647 5644 5642 5641 5641 5636 5634 5634 5631 5629 5629 5628 5629 5629 5629 5629 5630 5628 5629
5535 5537 5532 5529 5529 5545 5567 5556 5581 5615 5618 5620 5625 5628 5631 5631 5635 5639 5632 5634 5634 5630 5626 5624 5624 5625 5626 5627 5632 5636 5635 5633 5633 5632 5630 5628 5624 5622 5620 5617 5615 5615 5616 5616 5616 5618 5618 5616 5616
5532 5525 5546 5522 5540 5529 5552 5572 5591 5603 5608 5612 5614 5618 5616 5620 5623 5631 5626 5626 5623 5622 5619 5614 5613 5615 5615 5615 5618 5623 5624 5621 5618 5617 5615 5613 5613 5610 5607 5604 5603 5603 5603 5603 5605 5605 5608 5603 5602
5528 5536 5523 5509 5506 5534 5552 5562 5570 5595 5596 5599 5602 5602 5607 5613 5615 5614 5613 5611 5613 5613 5609 5607 5603 5606 5605 5605 5606 5609 5609 5609 5606 5603 5601 5601 5598 5596 5594 5593 5591 5591 5591 5592 5593 5593 5596 5594 5590
5518 5517 5519 5531 5530 5513 5532 5552 5575 5588 5586 5589 5587 5590 5593 5597 5600 5601 5599 5600 5601 5602 5601 5602 5598 5595 5596 5596 5593 5598 5596 5589 5586 5588 5590 5588 5585 5582 5582 5581 5581 5580 5580 5580 5581 5583 5582 5583 5582
5528 5525 5521 5518 5527 5528 5514 5539 5582 5578 5581 5585 5579 5582 5584 5586 5588 5593 5594 5591 5589 5590 5589 5590 5591 5582 5579 5581 5591 5582 5572 5573 5576 5578 5573 5573 5571 5570 5569 5569 5570 5570 5568 5568 5568 5571 5569 5569 5568